カタログに戻る

TITAN 3C TRANSTAGE DEB

運用中MEO
NORAD 38698·DEBRIS·🇺🇸 United States

打ち上げ Sep 26, 1968 から Cape Canaveral Space Force Station

Loading…

次のパス (今後24時間)

TLE

最新Source: Space-Track

元期: Sep 14, 2026, 07:48 UTC

1 38698U 68081Y   26257.32542616 -.00000128  00000-0  00000-0 0  9990
2 38698   3.7373  69.9185 0216517 181.0878 179.2152  1.04403343 86702

AllMySatでTITAN 3C TRANSTAGE DEBをリアルタイム追跡

Download on the App Store